"Time","Temp","Dewpoint","Humidity","Pressure","Direction","Speed","Gust","Precip","PrecipRate"
"00:04:59","73.1","67.9","83.6","30.23","149","0.4","2.4","0.00","0.00"
"00:09:58","73","67.9","84","30.23","149","0.3","2.4","0.00","0.00"
"00:14:57","73","67.9","84","30.23","149","0.1","1.2","0.00","0.00"
"00:19:56","72.8","67.7","84","30.23","149","0.1","2.4","0.00","0.00"
"00:24:59","72.6","67.7","84.5","30.23","149","0.4","2.3","0.00","0.00"
"00:29:58","72.4","67.6","85","30.23","149","0","0","0.00","0.00"
"00:34:57","72.2","67.6","85.5","30.23","149","0","0","0.00","0.00"
"00:39:58","71.9","67.6","86.3","30.23","149","0","1.2","0.00","0.00"
"00:44:57","71.7","67.6","87","30.23","149","0.6","2.4","0.00","0.00"
"00:49:56","71.6","67.5","87","30.23","149","0.5","2.3","0.00","0.00"
"00:54:59","71.7","67.6","87","30.23","149","0.3","2.4","0.00","0.00"
"00:59:57","71.7","67.6","87","30.23","149","1","2.4","0.00","0.00"
"01:04:59","71.7","67.6","87","30.23","149","0.9","2.4","0.00","0.00"
"01:09:59","71.7","67.6","87","30.23","149","0.2","2.4","0.00","0.00"
"01:14:59","71.7","67.6","87","30.23","149","0","1.2","0.00","0.00"
"01:19:58","71.5","67.4","87","30.23","149","0","1.2","0.00","0.00"
"01:24:57","71.5","67.7","87.8","30.23","149","0.4","2.4","0.00","0.00"
"01:29:56","71.4","67.7","88","30.23","149","0.1","1.2","0.00","0.00"
"01:34:59","71.4","67.7","88","30.23","149","0.3","1.2","0.00","0.00"
"01:39:59","71.5","67.8","88","30.23","149","0.5","2.4","0.00","0.00"
"01:44:57","71.6","67.9","88","30.23","149","0.5","2.4","0.00","0.00"
"01:49:56","71.7","68","88","30.23","149","1.2","3.6","0.00","0.00"
"01:54:59","71.8","68","87.6","30.23","149","0.4","2.3","0.00","0.00"
"01:59:58","71.9","68.1","87.9","30.23","149","0.6","3.6","0.00","0.00"
"02:04:57","72","68","87.3","30.23","149","0.2","2.3","0.00","0.00"
"02:09:56","72.1","68.1","87.3","30.23","142","0.3","4.8","0.00","0.00"
"02:14:56","72.2","68.1","87","30.23","142","0.8","3.6","0.00","0.00"
"02:19:59","72.3","68.2","87","30.23","142","0.9","2.4","0.00","0.00"
"02:24:58","72.4","68.3","87","30.23","142","1.4","4.8","0.00","0.00"
"02:29:57","72.5","68.4","87","30.23","147","1.5","4.6","0.00","0.00"
"02:34:56","72.5","68.4","87","30.23","144","1.2","6","0.00","0.00"
"02:39:56","72.6","68.4","87","30.23","137","0.4","5.8","0.00","0.00"
"02:44:59","72.5","68.4","87","30.23","139","1.4","4.8","0.00","0.00"
"02:49:58","72.5","68.4","87","30.23","141","0.9","2.4","0.00","0.00"
"02:54:57","72.5","68.4","87","30.23","141","0.5","3.6","0.00","0.00"
"02:59:59","72.5","68.4","87","30.23","141","0.5","3.6","0.00","0.00"
"03:04:58","72.5","68.4","87.2","30.23","141","0.9","3.6","0.00","0.00"
"03:09:58","72.5","68.6","87.7","30.23","141","0.7","3.6","0.00","0.00"
"03:14:58","72.4","68.4","87.3","30.23","141","0.7","3.5","0.00","0.00"
"03:19:57","72.3","68.5","88","30.23","141","0.6","2.4","0.00","0.00"
"03:24:56","72.3","68.5","88","30.23","141","0.3","1.2","0.00","0.00"
"03:29:59","72.2","68.4","88","30.24","141","0","1.2","0.00","0.00"
"03:34:58","72.2","68.4","88","30.24","141","0","0","0.00","0.00"
"03:39:58","72.2","68.4","88","30.24","141","0","0","0.00","0.00"
"03:44:57","72.2","68.4","88","30.24","141","0","0","0.00","0.00"
"03:49:56","72.1","68.4","88.3","30.24","141","0.2","1.2","0.00","0.00"
"03:54:58","72.1","68.7","88.8","30.24","121","1.1","4.8","0.00","0.00"
"03:59:57","72.1","68.4","88.2","30.24","121","1.2","3.6","0.00","0.00"
"04:04:59","72.1","68.3","88","30.24","121","1.4","4.8","0.00","0.00"
"04:09:58","72","68.2","88","30.24","121","1.2","3.6","0.00","0.00"
"04:14:59","71.9","68.2","88","30.24","121","1.6","4.8","0.00","0.00"
"04:19:58","71.9","68.2","88","30.24","121","0.8","3.6","0.00","0.00"
"04:24:57","71.8","68.3","88.8","30.24","125","1.3","3.6","0.00","0.00"
"04:29:59","71.7","68.3","89","30.24","128","0.5","2.4","0.00","0.00"
"04:34:58","71.7","68.3","89","30.24","128","0.2","1.2","0.00","0.00"
"04:39:59","71.6","68.2","89","30.24","128","0.2","2.4","0.00","0.00"
"04:44:58","71.6","68.2","89","30.24","128","0.4","2.4","0.00","0.00"
"04:49:57","71.5","68.1","89","30.24","128","0.2","2.4","0.00","0.00"
"04:54:23","71.4","68","89","30.24","128","0.1","1.2","0.00","0.00"
"04:59:59","71.3","67.9","89","30.24","128","0.2","1.2","0.00","0.00"
"05:04:57","71.2","68","89.6","30.24","128","0.2","2.4","0.00","0.00"
"05:09:57","71.1","68","90","30.24","128","0","0","0.00","0.00"
"05:14:57","71","67.9","90","30.24","128","0","0","0.00","0.00"
"05:19:48","71","67.9","90","30.24","128","0","0","0.00","0.00"
"05:24:56","70.8","67.7","90","30.24","128","0","0","0.00","0.00"
"05:29:59","70.7","67.7","90.3","30.24","128","0","0","0.00","0.00"
"05:34:58","70.6","67.8","91","30.23","128","0","0","0.00","0.00"
"05:39:58","70.5","67.7","91","30.23","128","0","0","0.00","0.00"
"05:44:57","70.5","67.8","91.3","30.24","128","0","0","0.00","0.00"
"05:49:56","70.6","68.1","91.8","30.24","128","0","0","0.00","0.00"
"05:54:59","70.6","68.1","91.6","30.24","128","0","0","0.00","0.00"
"05:59:58","70.7","67.9","91","30.24","128","0","0","0.00","0.00"
"06:04:57","70.7","67.9","91","30.24","128","0","0","0.00","0.00"
"06:09:57","70.6","67.8","91","30.24","128","0","0","0.00","0.00"
"06:14:58","70.6","67.8","91","30.24","128","0","0","0.00","0.00"
"06:19:53","70.5","67.7","91","30.24","128","0","0","0.00","0.00"
"06:24:56","70.5","67.7","91","30.24","128","0","0","0.00","0.00"
"06:29:59","70.4","67.6","91","30.24","128","0","0","0.00","0.00"
"06:34:58","70.3","67.6","91.2","30.24","128","0","0","0.00","0.00"
"06:39:58","70.3","67.6","91.3","30.24","128","0","0","0.00","0.00"
"06:44:57","70.2","67.8","92","30.24","128","0","0","0.00","0.00"
"06:49:56","70.2","67.8","92","30.24","128","0","0","0.00","0.00"
"06:54:56","70.1","67.7","92","30.24","128","0","0","0.00","0.00"
"06:59:59","70.1","67.7","92","30.25","128","0","1.2","0.00","0.00"
"07:04:57","70.1","67.7","92","30.25","152","0","0","0.00","0.00"
"07:09:57","70","67.6","92","30.25","152","0","0","0.00","0.00"
"07:14:57","70","67.6","92","30.25","152","0","0","0.00","0.00"
"07:19:56","69.9","67.5","92","30.25","152","0","0","0.00","0.00"
"07:24:59","69.9","67.5","92","30.25","152","0","0","0.00","0.00"
"07:29:57","69.9","67.5","92.1","30.25","152","0","0","0.00","0.00"
"07:34:59","69.9","67.6","92.4","30.25","152","0","0","0.00","0.00"
"07:39:59","69.9","67.8","92.9","30.25","152","0","0","0.00","0.00"
"07:44:58","69.9","67.8","93","30.26","152","0","0","0.00","0.00"
"07:49:56","70.2","68.1","93","30.26","152","0","0","0.00","0.00"
"07:54:39","70.4","68.3","93","30.26","152","0","0","0.00","0.00"
"08:04:59","71.1","68.7","92","30.26","152","0","0","0.00","0.00"
"08:09:57","71.4","69","92","30.26","152","0","0","0.00","0.00"
"08:14:56","71.6","69.2","92","30.26","152","0","0","0.00","0.00"
"08:19:56","71.8","69","91.1","30.26","152","0","0","0.00","0.00"
"08:24:56","71.9","69.1","91","30.26","152","0","0","0.00","0.00"
"08:29:55","72.1","69.3","91","30.26","152","0","0","0.00","0.00"
"08:34:58","72.3","69.5","91","30.26","152","0.1","2.4","0.00","0.00"
"08:39:59","72.5","69.7","91","30.26","152","1.3","3.6","0.00","0.00"
"08:44:56","72.7","69.9","91","30.26","153","1.3","3.6","0.00","0.00"
"08:49:57","72.8","70","91","30.26","153","1.8","3.6","0.00","0.00"
"08:54:59","72.9","70.1","91","30.26","153","0.3","3.5","0.00","0.00"
"08:59:56","73.2","70.4","91","30.26","153","0.4","2.4","0.00","0.00"
"09:04:57","73.5","70.6","90.7","30.26","153","1.2","3.6","0.00","0.00"
"09:09:59","73.8","70.7","90","30.26","153","2","4.8","0.00","0.00"
"09:14:58","74.2","71.1","90","30.26","152","1.2","4.6","0.00","0.00"
"09:19:59","74.4","71","89.1","30.26","150","1.6","3.6","0.00","0.00"
"09:24:57","74.7","71.2","89","30.26","165","3.2","7.2","0.00","0.00"
"09:29:58","75","71.3","88.5","30.26","172","1.8","4.8","0.00","0.00"
"09:34:56","75.2","71.4","88","30.26","136","1.8","4.8","0.00","0.00"
"09:39:22","75.2","71.2","87.2","30.26","128","1.3","3.6","0.00","0.00"
"09:44:56","75.2","71.3","87.7","30.26","130","1.6","4.8","0.00","0.00"
"09:49:57","75.1","71.2","87.5","30.26","135","1.8","6","0.00","0.00"
"09:54:58","75.1","71.2","87.6","30.26","134","1.1","3.6","0.00","0.00"
"09:59:56","75.1","71.3","88","30.26","134","1.2","3.6","0.00","0.00"
"10:04:57","75.2","71.3","87.7","30.26","141","1.6","3.6","0.00","0.00"
"10:09:58","75.3","71.4","87.8","30.26","144","1.2","3.6","0.00","0.00"
"10:14:58","75.4","71.4","87.3","30.26","144","1","3.6","0.00","0.00"
"10:19:59","75.6","71.6","87.3","30.26","145","0.3","2.4","0.00","0.00"
"10:24:36","75.8","71.7","87.1","30.26","156","2.1","4.8","0.00","0.00"
"10:29:57","76","71.5","86","30.26","139","0.5","4.6","0.00","0.00"
"10:34:59","76.1","71.6","86","30.26","192","2.9","6","0.00","0.00"
"10:39:58","76.2","71.6","85.5","30.26","189","2.2","4.8","0.00","0.00"
"10:44:59","76.2","71.4","85","30.26","182","1.1","3.6","0.00","0.00"
"10:49:57","76.3","71.7","85.8","30.26","181","1.2","3.6","0.00","0.00"
"10:54:58","76.5","71.7","85.2","30.26","180","2","4.8","0.00","0.00"
"10:59:59","76.9","72.1","85.2","30.26","180","1.6","3.6","0.00","0.00"
"11:04:56","77.8","72.6","84.3","30.26","176","1.9","4.8","0.00","0.00"
"11:09:58","78.4","72.7","82.8","30.26","177","1.5","4.6","0.00","0.00"
"11:14:58","78.8","72.4","80.8","30.26","155","2.3","6","0.00","0.00"
"11:19:56","79","72.4","80.3","30.26","167","2.1","6","0.00","0.00"
"11:24:58","79","72.4","80.1","30.26","191","3.4","6","0.00","0.00"
"11:29:57","79.2","72.9","81.1","30.26","196","2.5","8.4","0.00","0.00"
"11:34:56","79.4","72.4","79.3","30.26","182","2.5","8.1","0.00","0.00"
"11:39:11","79.3","72","78.6","30.26","191","2.7","4.8","0.00","0.00"
"11:44:58","79.4","72.2","78.6","30.26","200","2.5","4.8","0.00","0.00"
"11:49:57","80","72.4","77.8","30.26","218","3.2","6","0.00","0.00"
"11:54:59","80.3","72.3","76.8","30.26","244","3.2","8.4","0.00","0.00"
"11:59:58","80.4","72.6","77.3","30.26","242","1.3","4.8","0.00","0.00"
"12:04:56","80.8","72.1","74.9","30.25","225","3.6","7.2","0.00","0.00"
"12:09:59","80.9","71.6","73.7","30.25","187","2.2","8.1","0.00","0.00"
"12:14:59","81","71.7","73.4","30.25","192","1.5","3.6","0.00","0.00"
"12:19:57","81.3","71.8","73","30.24","192","2","6","0.00","0.00"
"12:24:56","81.6","72.1","73","30.24","157","2.5","6","0.00","0.00"
"12:29:58","81.8","72.3","72.8","30.24","220","2.3","6","0.00","0.00"
"12:34:57","82","72.3","72.5","30.24","225","1.8","4.8","0.00","0.00"
"12:39:57","82","71.9","71.5","30.24","221","2.5","6","0.00","0.00"
"12:44:56","82","72.4","72.7","30.24","184","2.5","6","0.00","0.00"
"12:49:58","82.5","72.5","71.9","30.23","187","1","4.8","0.00","0.00"
"12:54:57","82.6","72.5","71.5","30.23","140","1.1","4.8","0.00","0.00"
"12:59:59","82.6","72.5","71.5","30.23","127","2","6","0.00","0.00"
"13:04:57","82.8","72.2","70.4","30.23","147","1.4","4.8","0.00","0.00"
"13:09:57","83","72.6","70.9","30.23","193","2.1","7.2","0.00","0.00"
"13:14:57","83.6","72.7","69.8","30.23","216","2.2","7.2","0.00","0.00"
"13:19:59","84.1","72.5","68.3","30.22","159","3.8","7.2","0.00","0.00"
"13:24:58","84.6","72.7","67.7","30.22","195","4","8.4","0.00","0.00"
"13:29:56","84.7","71.8","65.4","30.22","201","3.7","7.2","0.00","0.00"
"13:34:59","84.1","71.5","65.9","30.22","180","3.1","6.9","0.00","0.00"
"13:39:59","83.9","72","67.6","30.22","128","0.8","4.8","0.00","0.00"
"13:44:58","84.3","72.4","67.5","30.22","150","2.9","8.4","0.00","0.00"
"13:49:56","84.9","72.5","66.5","30.21","136","3.2","8.1","0.00","0.00"
"13:54:59","85.5","73.1","66.6","30.21","196","2.1","7.2","0.00","0.00"
"13:59:57","85.9","72.9","65.3","30.21","215","4.3","10.8","0.00","0.00"
"14:04:56","86","72.6","64.5","30.21","200","3.9","8.4","0.00","0.00"
"14:09:59","85.8","72.5","64.6","30.21","195","3.6","8.1","0.00","0.00"
"14:14:59","85.4","71.9","64.3","30.21","195","2.9","6","0.00","0.00"
"14:19:57","85","71.8","64.8","30.21","151","3.2","7.2","0.00","0.00"
"14:24:56","84.7","72.1","66.3","30.21","163","1.5","4.8","0.00","0.00"
"14:29:59","84.7","72.3","66.5","30.21","169","1.9","4.8","0.00","0.00"
"14:34:57","85","72.2","65.6","30.20","160","1.7","4.8","0.00","0.00"
"14:39:58","85.3","72","64.7","30.20","160","1.7","6","0.00","0.00"
"14:44:56","85.3","72","64.6","30.20","170","2.7","6","0.00","0.00"
"14:49:59","85.1","71.8","64.5","30.19","130","3","7.2","0.00","0.00"
"14:54:09","84.9","71.4","64.2","30.19","135","3.1","6.9","0.00","0.00"
"14:59:56","84.7","71.8","65.3","30.19","186","3.7","7.2","0.00","0.00"
"15:04:59","84.6","72.1","66.3","30.19","186","2","4.8","0.00","0.00"
"15:09:58","84.9","71.9","65.3","30.19","214","1.7","6","0.00","0.00"
"15:14:58","85","72.1","65.4","30.19","170","2.7","6","0.00","0.00"
"15:19:57","85","71.7","64.7","30.18","129","2.1","6","0.00","0.00"
"15:24:59","85","71.7","64.6","30.18","154","2.5","7.2","0.00","0.00"
"15:29:58","85.1","72","65","30.18","167","3.1","6.9","0.00","0.00"
"15:34:56","85.2","71.7","64.3","30.18","127","2.5","4.8","0.00","0.00"
"15:39:56","85.3","71.6","63.7","30.18","120","2.6","6","0.00","0.00"
"15:44:59","85.1","71.6","64.1","30.18","121","2","6","0.00","0.00"
"15:49:57","85.4","72.9","66.3","30.17","194","2.4","4.8","0.00","0.00"
"15:54:56","86.1","71.9","62.9","30.17","127","2.4","4.8","0.00","0.00"
"15:59:58","86.2","72.7","64.2","30.17","134","1.8","4.8","0.00","0.00"
"16:04:57","86.5","72.1","62.4","30.16","151","3.9","9.6","0.00","0.00"
"16:09:56","86.5","71.7","61.6","30.16","128","2.4","6","0.00","0.00"
"16:14:56","86.1","71.6","62","30.16","161","3.2","6","0.00","0.00"
"16:19:59","85.8","72.2","63.8","30.16","139","2.2","6","0.00","0.00"
"16:24:57","86","72","63","30.16","168","2.3","7.2","0.00","0.00"
"16:29:56","86.3","72","62.5","30.16","164","2.6","4.8","0.00","0.00"
"16:34:59","86.7","72.5","62.8","30.15","166","1.6","4.8","0.00","0.00"
"16:39:59","87","72.5","62.2","30.15","156","1.5","4.8","0.00","0.00"
"16:44:58","86.8","71.6","60.9","30.15","121","2.3","6","0.00","0.00"
"16:49:24","86.4","71.4","61","30.15","147","3.4","7.2","0.00","0.00"
"16:54:59","85.9","71.5","62.4","30.15","171","4.3","8.4","0.00","0.00"
"16:59:57","85.6","71.2","62.2","30.15","154","3.5","8.1","0.00","0.00"
"17:04:59","85.4","71.5","63.3","30.15","192","2.6","6.9","0.00","0.00"
"17:09:58","85.2","71.4","63.6","30.15","190","3.1","6","0.00","0.00"
"17:14:59","85","71.3","63.8","30.15","196","4.3","7.2","0.00","0.00"
"17:19:57","84.6","70.9","63.7","30.15","197","3.8","8.4","0.00","0.00"
"17:24:56","84.4","71.2","64.7","30.15","193","2.6","4.8","0.00","0.00"
"17:29:58","84.4","70.9","64.2","30.15","148","2.5","7.2","0.00","0.00"
"17:34:57","84.6","71.2","64.2","30.15","145","2.5","6.9","0.00","0.00"
"17:39:57","85.2","71.5","63.8","30.15","169","3.1","6","0.00","0.00"
"17:44:56","85.8","71.9","63.3","30.15","194","3.5","7.2","0.00","0.00"
"17:49:58","86","71.4","61.8","30.15","188","3.2","6","0.00","0.00"
"17:54:57","86.2","71.3","61.2","30.15","186","2.3","4.8","0.00","0.00"
"17:59:59","86.4","71.3","60.8","30.15","173","2.1","6","0.00","0.00"
"18:04:55","86.4","71","60.2","30.15","152","2.9","6","0.00","0.00"
"18:09:59","86.1","70.9","60.6","30.15","139","2.5","6","0.00","0.00"
"18:14:59","85.8","71","61.3","30.15","200","2.4","7.2","0.00","0.00"
"18:19:57","85.3","70.5","61.3","30.14","180","3","7.2","0.00","0.00"
"18:24:56","85","70.6","62.1","30.14","172","2.9","4.8","0.00","0.00"
"18:29:58","85","71.3","63.5","30.14","165","1.8","6","0.00","0.00"
"18:34:57","85","71.1","63.1","30.14","134","2.5","6","0.00","0.00"
"18:39:57","84.9","70.9","63","30.14","129","2.2","7.2","0.00","0.00"
"18:44:56","84.7","70.9","63.4","30.14","193","2.8","6.9","0.00","0.00"
"18:49:58","84.6","70.7","63.2","30.13","186","3.5","7.2","0.00","0.00"
"18:54:57","84.4","70.8","63.8","30.13","189","2.8","7.2","0.00","0.00"
"18:59:56","84.1","70.9","64.7","30.13","190","3.6","7.2","0.00","0.00"
"19:04:58","83.8","71.1","65.9","30.13","167","1.5","5.8","0.00","0.00"
"19:09:57","83.4","70.9","66","30.13","156","2.2","4.8","0.00","0.00"
"19:14:58","83","70.5","66","30.13","204","3.4","7.2","0.00","0.00"
"19:19:57","82.6","70.5","67","30.13","203","2.3","4.8","0.00","0.00"
"19:24:56","82.2","70.4","67.6","30.13","178","2.6","4.8","0.00","0.00"
"19:29:59","81.8","70.4","68.4","30.13","143","1.8","4.6","0.00","0.00"
"19:34:58","81.5","70.3","69","30.12","149","1.7","4.8","0.00","0.00"
"19:39:58","81.3","70.2","69","30.12","151","1.8","7.2","0.00","0.00"
"19:44:58","81.2","70.1","69","30.13","154","1.3","6.9","0.00","0.00"
"19:49:57","81.1","70","69","30.13","153","1.6","4.8","0.00","0.00"
"19:54:59","81","69.9","69","30.13","154","2.6","6","0.00","0.00"
"19:59:58","80.8","69.7","69","30.13","160","2","6","0.00","0.00"
"20:04:56","80.6","69.8","69.6","30.13","160","2","5.8","0.00","0.00"
"20:09:59","80.4","69.7","70","30.13","150","1.5","4.8","0.00","0.00"
"20:14:57","80.2","69.6","70.2","30.14","150","1.6","3.6","0.00","0.00"
"20:19:59","80","69.7","71","30.14","151","1.5","5.8","0.00","0.00"
"20:24:58","79.8","69.7","71.2","30.14","153","1.3","4.8","0.00","0.00"
"20:29:57","79.6","69.8","72","30.15","152","0.8","6","0.00","0.00"
"20:34:56","79.5","69.7","72","30.15","147","2.1","5.8","0.00","0.00"
"20:39:57","79.3","69.6","72.2","30.15","156","2.3","4.8","0.00","0.00"
"20:44:56","79.1","69.7","73","30.15","157","1.4","3.6","0.00","0.00"
"20:49:59","78.8","69.6","73.4","30.15","157","1.2","4.8","0.00","0.00"
"20:54:57","78.6","69.6","74","30.15","157","1.6","3.6","0.00","0.00"
"20:59:58","78.4","69.4","74","30.15","157","1.4","3.6","0.00","0.00"
"21:04:59","78.3","69.6","74.6","30.15","157","0.8","2.4","0.00","0.00"
"21:09:57","78.1","69.5","75","30.15","157","0.6","3.6","0.00","0.00"
"21:14:57","78","69.4","75","30.15","157","0.2","1.2","0.00","0.00"
"21:19:58","77.7","69.7","76.4","30.15","157","0","0","0.00","0.00"
"21:24:56","77.2","69.5","77.4","30.15","157","0.2","2.4","0.00","0.00"
"21:29:58","76.7","69.3","78.2","30.16","157","0","0","0.00","0.00"
"21:34:56","76.3","69.3","79","30.16","157","0","0","0.00","0.00"
"21:39:59","75.9","69.2","79.6","30.16","157","0","0","0.00","0.00"
"21:44:57","75.5","69.2","80.8","30.16","157","0","0","0.00","0.00"
"21:49:59","75.2","69","81.2","30.16","157","0","0","0.00","0.00"
"21:54:57","74.7","69","82.5","30.16","157","0","0","0.00","0.00"
"21:59:58","74.2","68.8","83.3","30.16","157","0","0","0.00","0.00"
"22:04:56","73.8","68.7","84","30.16","157","0","0","0.00","0.00"
"22:09:58","73.5","68.7","84.8","30.16","157","0","0","0.00","0.00"
"22:14:57","73.2","68.7","85.6","30.17","157","0","0","0.00","0.00"
"22:19:59","73","68.6","86","30.17","157","0","0","0.00","0.00"
"22:24:56","72.8","68.4","86.2","30.17","157","0","0","0.00","0.00"
"22:29:58","72.6","68.5","87","30.17","157","0","0","0.00","0.00"
"22:34:56","72.4","68.4","87.2","30.17","157","0","0","0.00","0.00"
"22:39:56","72.2","68.4","88","30.17","157","0","0","0.00","0.00"
"22:44:57","72.1","68.3","88","30.17","157","0","0","0.00","0.00"
"22:49:59","71.9","68.2","88","30.17","157","0","1.2","0.00","0.00"
"22:54:57","71.8","68.3","88.7","30.17","157","0.1","1.2","0.00","0.00"
"22:59:59","71.7","68.3","89","30.17","157","0.2","1.2","0.00","0.00"
"23:04:56","71.6","68.2","89","30.17","157","0","0","0.00","0.00"
"23:09:58","71.6","68","88.3","30.17","157","0","0","0.00","0.00"
"23:14:57","71.6","68","88.1","30.17","157","0.1","1.2","0.00","0.00"
"23:19:59","71.6","68.1","88.7","30.17","157","0.1","1.2","0.00","0.00"
"23:24:57","71.5","67.8","88","30.17","157","0.3","1.2","0.00","0.00"
"23:29:59","71.5","67.6","87.6","30.17","157","0.1","1.2","0.00","0.00"
"23:34:57","71.5","67.4","87","30.17","157","0.2","1.2","0.00","0.00"
"23:39:56","71.5","67.4","87","30.17","157","0.2","1.2","0.00","0.00"
"23:44:58","71.5","67.4","87","30.17","157","0","1.2","0.00","0.00"
"23:49:56","71.5","67.4","86.9","30.16","157","0","0","0.00","0.00"
"23:54:58","71.6","67.3","86.2","30.16","157","0","2.4","0.00","0.00"
